Mount Carmel, IL

10:20 PM CST on December 06, 2019 (GMT -0600)
Mount Carmel Municipal

Weather History for KAJG - October, 2019

Change the Weather History Date:

Tuesday, October 29, 2019

  Actual Average (WUND) Record (WUND)
Temperature  
Mean Temperature 50 °F -  
Max Temperature 56 °F - - (-1)
Min Temperature 45 °F - - (-1)
Degree Days  
Heating Degree Days 14    
Moisture  
Dew Point 47 °F    
Average Humidity 85    
Maximum Humidity 94    
Minimum Humidity 75    
Precipitation  
Precipitation 0.00 in - - ()
Sea Level Pressure  
Sea Level Pressure 30.15 in    
Wind  
Wind Speed 8 mph (NW)    
Max Wind Speed 13 mph    
Max Gust Speed -    
Visibility 10 miles    
Events      
Averages and records for this station are not official NWS values.
T = Trace of Precipitation, MM = Missing Value Source: NWS Daily Summary

Daily Weather History Graph

Daily Weather History Graph

Search for Another Location

Airport or City:

Astronomy

Oct. 29, 2019 Rise Set
Actual Time 7:14 AM CDT 5:54 PM CDT
Civil Twilight 6:46 AM CDT 6:21 PM CDT
Nautical Twilight 6:15 AM CDT 6:53 PM CDT
Astronomical Twilight 5:44 AM CDT 7:23 PM CDT
Moon 8:46 AM CDT (10/29) 7:19 PM CDT (10/29)
Length of Visible Light 11h 35m
Length of Day
10h 40m
Waxing Crescent, 3% of the Moon is Illuminated
Oct 29
Waxing Crescent
Nov 4
First Quarter
Nov 12
Full
Nov 19
Last Quarter
Nov 26
New

Hourly Weather History & Observations

Time (CDT) Temp. Windchill Dew Point Humidity Pressure Visibility Wind Dir Wind Speed Gust Speed Precip Events Conditions
12:15 AM 55.4 °F - 52.0 °F 88% 30.04 in 10.0 mi North - - N/A   Overcast
12:35 AM 55.6 °F - 52.0 °F 88% 30.04 in 10.0 mi South 5.8 mph - N/A   Overcast
12:55 AM 55.4 °F - 52.2 °F 89% 30.05 in 10.0 mi North - - N/A   Overcast
1:15 AM 55.8 °F - 52.2 °F 88% 30.04 in 10.0 mi North - - N/A   Overcast
1:35 AM 56.3 °F - 52.2 °F 86% 30.05 in 10.0 mi North - - N/A   Overcast
1:55 AM 56.3 °F - 52.2 °F 86% 30.05 in 10.0 mi SSW 5.8 mph - N/A   Overcast
2:15 AM 56.3 °F - 52.5 °F 87% 30.04 in 10.0 mi South 8.1 mph - N/A   Overcast
2:35 AM 55.9 °F - 52.7 °F 89% 30.04 in 10.0 mi South 6.9 mph - N/A   Overcast
2:55 AM 55.6 °F - 52.7 °F 90% 30.05 in 10.0 mi North - - N/A   Overcast
3:15 AM 55.6 °F - 52.5 °F 89% 30.05 in 10.0 mi SW 5.8 mph - N/A   Overcast
3:35 AM 55.6 °F - 52.2 °F 88% 30.06 in 10.0 mi WSW 9.2 mph - N/A   Overcast
3:55 AM 55.4 °F - 51.8 °F 88% 30.06 in 10.0 mi WSW 10.4 mph - N/A   Overcast
4:15 AM 54.9 °F - 51.1 °F 87% 30.06 in 10.0 mi SW 6.9 mph - N/A   Overcast
4:35 AM 53.4 °F - 50.5 °F 90% 30.06 in 10.0 mi SW 4.6 mph - N/A   Mostly Cloudy
4:55 AM 52.7 °F - 50.2 °F 91% 30.06 in 10.0 mi SW 5.8 mph - N/A   Scattered Clouds
5:15 AM 51.8 °F - 49.6 °F 92% 30.07 in 10.0 mi North - - N/A   Clear
5:35 AM 51.6 °F - 49.6 °F 93% 30.07 in 10.0 mi SSW 5.8 mph - N/A   Clear
5:55 AM 51.8 °F - 50.2 °F 94% 30.08 in 10.0 mi North - - N/A   Mostly Cloudy
6:15 AM 53.6 °F - 51.1 °F 91% 30.08 in 10.0 mi North - - N/A   Overcast
6:35 AM 54.1 °F - 51.3 °F 90% 30.08 in 10.0 mi SW 8.1 mph - N/A   Overcast
6:55 AM 54.3 °F - 51.1 °F 89% 30.09 in 10.0 mi SW 10.4 mph - N/A   Overcast
7:15 AM 54.5 °F - 51.1 °F 88% 30.09 in 10.0 mi SW 9.2 mph - N/A   Overcast
7:35 AM 54.5 °F - 51.1 °F 88% 30.10 in 10.0 mi SW 10.4 mph - N/A   Overcast
7:55 AM 54.5 °F - 51.1 °F 88% 30.11 in 10.0 mi SW 9.2 mph - N/A   Overcast
8:15 AM 54.7 °F - 50.9 °F 87% 30.13 in 10.0 mi WSW 8.1 mph - N/A   Overcast
8:35 AM 54.9 °F - 50.9 °F 86% 30.14 in 10.0 mi SW 9.2 mph - N/A   Overcast
8:55 AM 55.0 °F - 51.1 °F 86% 30.15 in 10.0 mi WSW 10.4 mph - N/A   Overcast
9:15 AM 56.3 °F - 51.4 °F 84% 30.16 in 10.0 mi WSW 9.2 mph - N/A   Overcast
9:35 AM 56.3 °F - 51.3 °F 83% 30.16 in 10.0 mi WSW 9.2 mph - N/A   Overcast
9:55 AM 56.7 °F - 50.9 °F 81% 30.16 in 10.0 mi West 10.4 mph - N/A   Overcast
10:15 AM 55.6 °F - 51.6 °F 87% 30.16 in 7.0 mi West 9.2 mph - N/A   Overcast
10:35 AM 50.2 °F - 48.0 °F 92% 30.18 in 3.0 mi NW 10.4 mph - N/A   Overcast
10:55 AM 49.1 °F - 46.8 °F 92% 30.18 in 5.0 mi NW 10.4 mph - N/A   Overcast
11:15 AM 49.5 °F - 47.1 °F 92% 30.19 in 5.0 mi NW 10.4 mph - N/A   Overcast
11:35 AM 50.0 °F - 46.2 °F 87% 30.20 in 10.0 mi NW 9.2 mph - N/A   Overcast
11:55 AM 50.0 °F - 45.5 °F 85% 30.21 in 10.0 mi WNW 12.7 mph - N/A   Overcast
12:15 PM 49.6 °F - 44.8 °F 83% 30.21 in 10.0 mi NW 10.4 mph - N/A   Overcast
12:35 PM 49.6 °F - 44.6 °F 83% 30.20 in 10.0 mi NW 9.2 mph - N/A   Overcast
12:55 PM 50.4 °F - 44.6 °F 81% 30.19 in 10.0 mi NW 5.8 mph - N/A   Overcast
1:15 PM 51.8 °F - 45.3 °F 79% 30.19 in 10.0 mi NW 8.1 mph - N/A   Overcast
1:35 PM 51.8 °F - 45.1 °F 78% 30.19 in 10.0 mi NW 9.2 mph - N/A   Overcast
1:55 PM 51.3 °F - 44.2 °F 77% 30.19 in 10.0 mi NW 8.1 mph - N/A   Overcast
2:15 PM 51.1 °F - 43.9 °F 76% 30.19 in 10.0 mi WNW 6.9 mph - N/A   Overcast
2:35 PM 51.1 °F - 43.9 °F 76% 30.19 in 10.0 mi NNW 9.2 mph - N/A   Overcast
2:55 PM 50.9 °F - 43.7 °F 76% 30.20 in 10.0 mi NW 8.1 mph - N/A   Overcast
3:15 PM 50.9 °F - 43.3 °F 75% 30.20 in 10.0 mi NNW 8.1 mph - N/A   Overcast
3:35 PM 50.5 °F - 43.2 °F 76% 30.21 in 10.0 mi NNW 9.2 mph - N/A   Overcast
3:55 PM 50.0 °F - 42.8 °F 76% 30.20 in 10.0 mi NNW 9.2 mph - N/A   Overcast
4:15 PM 49.5 °F - 42.8 °F 78% 30.21 in 10.0 mi North 9.2 mph - N/A   Overcast
4:35 PM 48.9 °F - 42.6 °F 79% 30.21 in 10.0 mi NNW 10.4 mph - N/A   Overcast
4:55 PM 48.7 °F - 42.6 °F 79% 30.21 in 10.0 mi North 9.2 mph - N/A   Overcast
5:15 PM 48.2 °F - 42.1 °F 79% 30.20 in 10.0 mi NNE 6.9 mph - N/A   Overcast
5:35 PM 47.8 °F - 42.1 °F 80% 30.21 in 10.0 mi North 8.1 mph - N/A   Overcast
5:55 PM 47.1 °F - 41.9 °F 82% 30.22 in 10.0 mi NNW 11.5 mph - N/A   Overcast
6:15 PM 46.6 °F - 41.5 °F 83% 30.22 in 10.0 mi North 4.6 mph - N/A   Overcast
6:35 PM 46.4 °F 41.9 °F 41.4 °F 83% 30.22 in 10.0 mi North 9.2 mph - N/A   Overcast
6:55 PM 46.4 °F 42.9 °F 41.5 °F 83% 30.22 in 10.0 mi North 6.9 mph - N/A   Overcast
7:15 PM 46.4 °F - 41.4 °F 83% 30.21 in 10.0 mi North - - N/A   Overcast
7:35 PM 46.0 °F 41.9 °F 41.2 °F 83% 30.20 in 10.0 mi North 8.1 mph - N/A   Overcast
7:55 PM 45.7 °F 42.0 °F 41.0 °F 84% 30.21 in 10.0 mi NE 6.9 mph - N/A   Overcast
8:15 PM 45.9 °F 40.4 °F 41.2 °F 84% 30.20 in 10.0 mi NE 11.5 mph - N/A   Overcast
8:35 PM 45.7 °F 41.5 °F 41.4 °F 85% 30.20 in 10.0 mi NNE 8.1 mph - N/A   Overcast
8:55 PM 45.7 °F 42.0 °F 41.5 °F 85% 30.20 in 10.0 mi NE 6.9 mph - N/A   Overcast
9:15 PM 45.7 °F - 41.9 °F 87% 30.20 in 10.0 mi North - - N/A   Overcast
9:35 PM 45.7 °F - 41.9 °F 87% 30.21 in 10.0 mi North - - N/A   Overcast
9:55 PM 45.7 °F 41.5 °F 42.1 °F 87% 30.20 in 10.0 mi NNE 8.1 mph - N/A   Overcast
10:15 PM 45.5 °F 42.5 °F 42.3 °F 88% 30.20 in 7.0 mi NNE 5.8 mph - N/A   Overcast
10:35 PM 45.5 °F 40.8 °F 42.3 °F 88% 30.21 in 7.0 mi NNE 9.2 mph - N/A   Overcast
10:55 PM 45.5 °F 40.8 °F 42.4 °F 89% 30.20 in 7.0 mi NNE 9.2 mph - N/A   Overcast
11:15 PM 45.5 °F 42.5 °F 42.6 °F 90% 30.20 in 7.0 mi North 5.8 mph - N/A   Overcast
11:35 PM 45.5 °F 41.8 °F 42.8 °F 90% 30.19 in 7.0 mi NNE 6.9 mph - N/A   Overcast
11:55 PM 45.5 °F 41.3 °F 42.8 °F 90% 30.19 in 7.0 mi North 8.1 mph - N/A   Overcast